Regional Weather Roundup
Issued by NWS

Home | Current Version | Previous Version | Text Only | Print | Product List | Glossary On
Versions: 1 2 3 4 5 6 7 8 9 10 11 12 13 14 15 16 17 18 19 20 21 22 23 24 25 26 27
000
ASUS45 KTFX 191610
RWRMT
MONTANA REGIONAL WEATHER ROUNDUP
NATIONAL WEATHER SERVICE GREAT FALLS MT
900 AM MST THU JAN 19 2017

NOTE: "FAIR" INDICATES FEW OR NO CLOUDS BELOW 12000 FEET WITH NO
SIGNIFICANT WEATHER AND/OR OBSTRUCTIONS TO VISIBILITY.

MTZ001>007-043-191700-
WEST OF THE DIVIDE

CITY           SKY/WX    TMP DP  RH WIND       PRES   REMARKS
KALISPELL      CLOUDY    29  28  96 SW6       29.52S FOG     WCI  23
MISSOULA       CLOUDY    29  27  92 CALM      29.58S FOG
BUTTE          CLOUDY    25  19  78 CALM      29.57R
MULLAN PASS    LGT SNOW  30  27  88 VRB7      29.51S FOG     WCI  23
ANACONDA         N/A     36  25  64 SE9       29.55R WCI  29
DEER LODGE       N/A     37  28  70 S7        29.56S
EUREKA           N/A     37  34  87 S10       29.51R WCI  30
HAMILTON         N/A     39  28  65 S7        29.55R
RONAN            N/A     32  29  89 CALM      29.61R
$$

MTZ008-052>055-191700-
SOUTHWEST MONTANA

CITY           SKY/WX    TMP DP  RH WIND       PRES   REMARKS
BOZEMAN        CLOUDY    28  23  81 S6        29.59R WCI  22
DILLON         CLOUDY    37  21  52 S7        29.59R HAZE    WCI  32
W YELLOWSTONE  LGT SNOW  19  18  93 W3        29.69S
ENNIS          CLOUDY    32  25  74 S23G29    29.65S WCI  19
$$

MTZ009-010-012-014-046-048-049-054-191700-
EAST SLOPES AND CENTRAL MONTANA

CITY           SKY/WX    TMP DP  RH WIND       PRES   REMARKS
CUT BANK       MOCLDY    38  30  73 CALM      29.41R
GREAT FALLS    CLOUDY    41  27  57 SW17      29.46R
MALMSTROM AFB  CLOUDY    40  30  66 S12       29.47R
HELENA         CLOUDY    30  21  69 W3        29.56R
AUGUSTA        MOCLDY    36  29  74 SW10      29.45R WCI  29
BOWMANS CRNR   MOCLDY    34  28  76 S22       29.46R WCI  22
CHOTEAU          N/A     39  30  70 S6        29.47R
POWER          MOCLDY    37  29  72 SW17      29.44R WCI  27
RAYNESFORD     MOCLDY    42  26  52 SW18      29.48R
ULM            MOCLDY    41  28  60 MISG      29.49R
$$

MTZ011-013-016-021-045-047-050-051-191700-
NORTH CENTRAL MONTANA

CITY           SKY/WX    TMP DP  RH WIND       PRES   REMARKS
HAVRE          CLOUDY    32  30  92 SE6       29.43R WCI  26
LEWISTOWN      CLOUDY    35  27  72 S9        29.47S WCI  28
CHINOOK          N/A     30  28  93 CALM      29.44R
DENTON         MOCLDY    39  30  68 SW10      29.43S
FORT BENTON      N/A     45  28  53 MISG      29.43S
GEYSER         CLOUDY    45  27  50 W30G40    29.42S
GRASS RANGE    MOCLDY    41  29  62 SW12      29.44R
JUDITH GAP     CLOUDY    40  27  59 SW22G31   29.47F
ROY            MOCLDY    45  30  55 MISG      29.44R
STANFORD       CLOUDY    43  27  53 NW3       29.46R
WINIFRED       MOCLDY    42  29  58 SW13      29.45R
$$

MTZ017>020-022>027-061-062-191700-
NORTHEAST MONTANA

CITY           SKY/WX    TMP DP  RH WIND       PRES   REMARKS
GLASGOW        CLOUDY    21  16  81 S9        29.45R WCI  11
JORDAN           N/A     20  17  88 W6        29.45S WCI  12
SIDNEY         CLOUDY    19  15  84 S9        29.50S WCI   8
WOLF POINT     CLOUDY    13  10  88 CALM      29.49R
PLENTYWOOD       N/A     25  19  80 E5        29.47R
POPLAR           N/A     18  12  79 CALM      29.49S
$$

MTZ028>42-056>058-191700-
SOUTHCENTRAL AND SOUTHEAST MONTANA

CITY           SKY/WX    TMP DP  RH WIND       PRES   REMARKS
BAKER          CLOUDY    14   9  80 CALM      29.51S
BILLINGS       CLOUDY    34  20  56 W14       29.51S WCI  25
LIVINGSTON     CLOUDY    41  23  48 SW26G38   29.54S
MILES CITY     CLOUDY    19  13  77 S13       29.51R WCI   6
BIG TIMBER     PTCLDY    41  25  52 W21G28    29.55R
FORSYTH          N/A     19  16  86 CALM      29.50R
HARLOWTON      CLOUDY    40  24  54 W10       29.49F
LAUREL           N/A     31  16  54 SW6       29.55R WCI  25
$$

REGIONAL REPORTS...DAKOTAS

CITY           SKY/WX    TMP DP  RH WIND       PRES   REMARKS
WILLISTON      CLOUDY    18  17  96 CALM      29.50S
MINOT          CLOUDY    30  23  75 SW14      29.47S WCI  19
DICKINSON      CLOUDY    22  16  78 W8        29.47S WCI  12
BEACH            N/A     18  14  86 SW5       29.53S
CROSBY           N/A     27  23  86 SW20      29.48S WCI  13
TIOGA            N/A     23  23 100 SW3       29.50S
WATFORD CITY     N/A     18  16  93 CALM      29.50S
BISMARCK       CLOUDY    15  10  80 NE5       29.53S
GRAND FORKS    FOG       23  19  85 S16       29.58F VSB 3/4 WCI  10
FARGO          PTSUNNY   30  30 100 SE12G26   29.63R FOG     WCI  20
BUFFALO SD       N/A     31  18  58 NW6       29.43S WCI  25
RAPID CITY     CLOUDY    34  19  54 NW7       29.49S WCI  28
$$

REGIONAL REPORTS...WYOMING/IDAHO/WASHINGTON

CITY           SKY/WX    TMP DP  RH WIND       PRES   REMARKS
GILLETTE       CLOUDY    37  19  48 SW20G26   29.50S WCI  27
SHERIDAN       CLOUDY    16  12  84 S5        29.52R
BUFFALO WY     SUNNY     38  18  44 W12       29.51R WCI  30
CODY           CLOUDY    30  21  69 S6        29.58S WCI  24
YELLOWSTONE LA   N/A     22  21  96 CALM      29.70S
IDAHO FALLS    LGT SNOW  25  24  96 CALM      29.73R FOG
SALMON         CLOUDY    21  18  86 CALM      29.65R
BOISE          CLOUDY    38  33  82 SE16      29.65R WCI  29
SPOKANE        CLOUDY    36  31  82 S8        29.55R WCI  30
$$

REGIONAL REPORTS...ALBERTA

CITY           SKY/WX    TMP DP  RH WIND       PRES   REMARKS
EDMONTON       MOCLDY    30  19  64 SW2       29.21S
CALGARY        CLOUDY    34  27  75 CALM      29.25R
LETHBRIDGE     MOCLDY    36  32  87 SW9       29.35R WCI  29
MEDICINE HAT   MOCLDY    37  32  81 SW15      29.34S WCI  28
WATERTON GATE    N/A     41  27  56 SW14G25     N/A
CARDSTON         N/A     41  28  60 SW7         N/A
MILK RIVER       N/A     37  32  81 S6          N/A
$$

REGIONAL REPORTS...SASKATCHEWAN

CITY           SKY/WX    TMP DP  RH WIND       PRES   REMARKS
SWIFT CURRENT  CLOUDY    39  32  75 SW17G24   29.35F WCI  30
REGINA         MOCLDY    25  23  93 CALM      29.41S
SASKATOON      CLOUDY    34  30  86 SW9       29.35R WCI  26
CYPRESS HILLS    N/A     30  25  80 S6          N/A  WCI  24
ROCKGLEN         N/A     36  27  69 SW5         N/A
$$




USA.gov is the U.S. government's official web portal to all federal, state and local government web resources and services.